Regional Weather Roundup
Issued by NWS

Home | Current Version | Previous Version | Graphics & Text | Print | Product List | Glossary On
Versions: 1 2 3 4 5 6 7 8 9 10 11 12 13 14 15 16 17 18 19 20 21 22 23 24 25 26 27 28 29 30 31 32 33 34 35 36 37 38 39 40 41 42 43 44 45 46 47 48 49 50
000
ASUS43 KOAX 231402
RWRNE

WEATHER ROUNDUP FOR NEBRASKA
NATIONAL WEATHER SERVICE OMAHA NE
900 AM CDT TUE AUG 23 2016

NOTES: SATELLITE DATA IS BEING USED TO AUGMENT CLOUD COVER ABOVE
       12000 FEET.
       "FAIR" INDICATES FEW OR NO CLOUDS BELOW 12,000 FEET WITH NO
       SIGNIFICANT WEATHER AND/OR OBSTRUCTIONS TO VISIBILITY.

  * THESE STATIONS DO NOT REPORT WEATHER SUCH AS RAIN...SNOW OR FOG.

NEZ001>004-019>022-054>056-231500-
NEBRASKA PANHANDLE

CITY           SKY/WX    TMP DP  RH WIND       PRES   REMARKS
SCOTTSBLUFF    SUNNY     63  55  75 NW9       29.92R
ALLIANCE       SUNNY     63  58  83 SW7       29.88R
CHADRON        SUNNY     70  35  27 W18G26    29.84R
KIMBALL        SUNNY     68  44  42 NW9       29.97R
SIDNEY         SUNNY     64  54  69 W8        29.93R
$$

NEZ057>060-069>072-079>082-231500-
SOUTHWEST NEBRASKA

CITY           SKY/WX    TMP DP  RH WIND       PRES   REMARKS
NORTH PLATTE   SUNNY     69  62  78 SE5       29.84F
IMPERIAL       SUNNY     67  62  84 S5        29.86S
LEXINGTON      SUNNY     69  64  85 SE10      29.84S
MCCOOK         SUNNY     69  65  86 SE8       29.83S
OGALLALA       SUNNY     68  61  77 CALM      29.87S
$$

NEZ005>010-023>029-035>040-094-231500-
NORTH CENTRAL NEBRASKA

CITY           SKY/WX    TMP DP  RH WIND       PRES   REMARKS
VALENTINE      SUNNY     72  60  66 S17       29.78F
AINSWORTH      SUNNY     71  62  74 S16       29.81S
BROKEN BOW     SUNNY     68  63  84 S10       29.84S
O`NEILL        MOSUNNY   68  60  76 S10       29.83S
ORD            PTSUNNY   66  63  90 E3        29.84R
THEDFORD       SUNNY     71  63  73 S16       29.84F
$$

NEZ041-046>049-061>064-073>077-083>087-231500-
SOUTH CENTRAL NEBRASKA

CITY           SKY/WX    TMP DP  RH WIND       PRES   REMARKS
GRAND ISLAND   CLOUDY    69  65  86 SE13      29.87F
AURORA         CLOUDY    69  69  98 S13G18    29.88F
HASTINGS       CLOUDY    70  66  87 S10       29.88F
HEBRON         CLOUDY    73  69  88 S13G21    29.91R
HOLDREGE       MOSUNNY   70  67  89 S13G18    29.85F
KEARNEY *      CLOUDY    68  64  88 S17       29.86S
$$

NEZ011>018-030>034-042>045-231500-
NORTHEAST NEBRASKA

CITY           SKY/WX    TMP DP  RH WIND       PRES   REMARKS
NORFOLK        LGT RAIN  67  63  87 SE14      29.87F
ALBION         TSTM      66  64  92 SE23G30   29.87R
BLAIR          MOSUNNY   70  66  87 S10G18    29.94S
FREMONT        PTSUNNY   71  66  84 SE13G21   29.93R
TEKAMAH        CLOUDY    70  65  84 SE8       29.93R
WAYNE          CLOUDY    67  65  92 S12       29.90S
$$

NEZ050>053-065>068-078-088>093-231500-
SOUTHEAST NEBRASKA

CITY           SKY/WX    TMP DP  RH WIND       PRES   REMARKS
LINCOLN        CLOUDY    73  69  87 S16G25    29.93R
OMAHA EPPLEY   CLOUDY    72  65  78 S18       29.95S
BEATRICE       CLOUDY    73  69  88 S15       29.93F
FALLS CITY     CLOUDY    72  69  90 SE10      29.98F
NEBRASKA CITY  CLOUDY    70  70 100 S14       29.97S FOG
PLATTSMOUTH    CLOUDY    68  67  94 SE12G20   29.97R
$$

NEZ044-045-051>053-067-231500-
OMAHA AREA

CITY           SKY/WX    TMP DP  RH WIND       PRES   REMARKS
OMAHA EPPLEY   CLOUDY    72  65  78 S18       29.95S
BLAIR          MOSUNNY   70  66  87 S10G18    29.94S
FREMONT        PTSUNNY   71  66  84 SE13G21   29.93R
MILLARD        CLOUDY    71  67  85 SE14      29.95R
OFFUTT AFB     CLOUDY    70  67  92 SE15G21   29.96R
PLATTSMOUTH    CLOUDY    68  67  94 SE12G20   29.97R
WAHOO          CLOUDY    70  67  89 SE12      29.93S
$$




USA.gov is the U.S. government's official web portal to all federal, state and local government web resources and services.